sat.trackr.live / text

‹ back to catalog

ASTROCAST 0.1

NORAD 43798 · 2018-099AS

PAYLOAD ACTIVE UNKNOWN

§ Identity

Operator
Country
SWTZ
Launch date
2018-12-03
Launch site
AFWTR
Launch vehicle
Mass (kg)
RCS (m²)

External: N2YO · Heavens-Above · Gunter

§ Orbital elements

Epoch: 2026-09-20T04:23:51.204192Z

Period
92.53 min
Inclination
97.4297°
Eccentricity
0.0003533
Mean motion
15.56254136 rev/d
Perigee alt
396.1 km
Apogee alt
400.9 km
Semi-major
6,776.6 km
B*
5.0252e-4
RAAN
345.0708°
Arg perigee
219.3144°
Mean anomaly
140.7854°
Rev number
42,917

§ Raw data

ASTROCAST 0.11 43798U 18099AS  26263.18323153  .00035282  00000+0  50252-3 0  99992 43798  97.4297 345.0708 0003533 219.3144 140.7854 15.56254136429176

JSON: /api/v1/satellites/43798 · /tle

For live sub-satellite position, see the globe view (requires WebGL).

§ Visibility from observer

Set your observer location to see the next 7 days of passes ≥ 10°. The values pass through the URL so the page stays shareable.

No JS? Fill the form by hand. The geolocation button needs JavaScript.

§ Radio — SatNOGS DB

ModeDescriptionDownlinkUplink
FSK Mode U - FSK1k2 437.150 MHz
FM Transmitter 2.406 GHz
AFSK Mode U - AFSK1k2 (inactive) 437.300 MHz

3 transmitters · refreshed weekly from db.satnogs.org